N0KTA-2 Weather Reports


Display with metric or nautical units.
time (UTC)temp
F
wind
direction
speed
MPH
gust
MPH
rain 1hr
in
rain 24hr
in
rain mn
in
humidity
%
barometer
mb
20260903165049 91 269 1.0 2.0 0.00 0.00 0.00 53 1007.2
20260903164050 91 206 9.0 14.0 0.00 0.00 0.00 54 1007.2
20260903163049 90 206 3.0 12.0 0.00 0.00 0.00 55 1007.4
20260903162050 89 213 8.0 12.0 0.00 0.00 0.00 58 1007.5
20260903161049 89 210 5.0 9.0 0.00 0.00 0.00 60 1007.7
20260903160050 87 212 0.0 6.0 0.00 0.00 0.00 60 1007.8
20260903155049 87 262 2.0 9.0 0.00 0.00 0.00 61 1007.8
20260903154050 87 232 5.0 16.0 0.00 0.00 0.00 61 1007.8
20260903153050 86 191 6.0 12.0 0.00 0.00 0.00 62 1007.8
20260903152050 86 210 2.0 9.0 0.00 0.00 0.00 63 1007.8
20260903151050 85 210 2.0 5.0 0.00 0.00 0.00 65 1007.8
20260903150049 84 181 8.0 14.0 0.00 0.00 0.00 66 1007.8
20260903145050 83 193 7.0 13.0 0.00 0.00 0.00 66 1007.9
20260903144049 83 193 5.0 5.0 0.00 0.00 0.00 68 1007.9
20260903143049 82 179 8.0 12.0 0.00 0.00 0.00 69 1008.0
20260903142049 82 217 5.0 9.0 0.00 0.00 0.00 69 1008.0
20260903141050 81 192 5.0 7.0 0.00 0.00 0.00 70 1008.1
20260903140050 81 176 5.0 12.0 0.00 0.00 0.00 72 1008.2
20260903135049 80 224 3.0 3.0 0.00 0.00 0.00 72 1008.2
20260903134050 79 198 3.0 7.0 0.00 0.00 0.00 73 1008.2
20260903133049 79 184 5.0 6.0 0.00 0.00 0.00 73 1008.2
20260903132050 78 190 6.0 6.0 0.00 0.00 0.00 74 1008.2
20260903131050 78 185 3.0 5.0 0.00 0.00 0.00 74 1008.2
20260903130049 78 199 3.0 5.0 0.00 0.00 0.00 74 1007.9
20260903125049 78 198 6.0 7.0 0.00 0.00 0.00 74 1007.9
20260903124049 77 190 6.0 10.0 0.00 0.00 0.00 73 1007.9
20260903123049 77 195 3.0 6.0 0.00 0.00 0.00 73 1007.8
20260903122050 78 177 5.0 7.0 0.00 0.00 0.00 72 1007.6
20260903121050 78 177 3.0 5.0 0.00 0.00 0.00 72 1007.5
20260903120050 78 190 3.0 3.0 0.00 0.00 0.00 71 1007.3
20260903115049 78 190 5.0 7.0 0.00 0.00 0.00 71 1007.2
20260903114050 78 191 3.0 3.0 0.00 0.00 0.00 71 1007.1
20260903113049 78 195 3.0 3.0 0.00 0.00 0.00 70 1007.2
20260903112050 78 187 1.0 3.0 0.00 0.00 0.00 70 1007.2
20260903111049 79 189 1.0 3.0 0.00 0.00 0.00 69 1007.2
20260903110050 79 199 2.0 3.0 0.00 0.00 0.00 68 1007.1
20260903105050 79 195 2.0 3.0 0.00 0.00 0.00 68 1007.1
20260903104049 80 195 1.0 5.0 0.00 0.00 0.00 68 1007.1
20260903103050 80 207 2.0 3.0 0.00 0.00 0.00 68 1007.1
20260903102049 80 191 5.0 5.0 0.00 0.00 0.00 67 1007.1
20260903101050 80 187 2.0 5.0 0.00 0.00 0.00 67 1007.1
20260903100049 80 186 3.0 5.0 0.00 0.00 0.00 66 1007.1
20260903095050 81 186 2.0 3.0 0.00 0.00 0.00 66 1007.0
20260903094049 81 188 2.0 3.0 0.00 0.00 0.00 65 1007.0
20260903093050 81 185 2.0 5.0 0.00 0.00 0.00 65 1007.0
20260903092049 81 186 1.0 2.0 0.00 0.00 0.00 64 1006.9
20260903091050 82 191 3.0 6.0 0.00 0.00 0.00 63 1006.9
20260903090049 82 186 3.0 7.0 0.00 0.00 0.00 62 1006.6
20260903085050 82 192 3.0 7.0 0.00 0.00 0.00 62 1006.5
20260903084049 82 180 3.0 3.0 0.00 0.00 0.00 62 1006.5
20260903083050 82 187 3.0 9.0 0.00 0.00 0.00 61 1006.5
20260903082049 82 184 3.0 7.0 0.00 0.00 0.00 60 1006.5
20260903081049 82 192 5.0 6.0 0.00 0.00 0.00 60 1006.5
20260903080050 82 188 5.0 7.0 0.00 0.00 0.00 59 1006.5
20260903075049 82 185 5.0 9.0 0.00 0.00 0.00 59 1006.5
20260903074050 82 186 2.0 3.0 0.00 0.00 0.00 59 1006.5
20260903073049 82 190 5.0 5.0 0.00 0.00 0.00 59 1006.5
20260903072049 82 192 2.0 5.0 0.00 0.00 0.00 59 1006.5
20260903071048 82 185 3.0 5.0 0.00 0.00 0.00 59 1006.5
20260903070050 82 190 3.0 3.0 0.00 0.00 0.00 59 1006.5
20260903065049 82 184 3.0 6.0 0.00 0.00 0.00 59 1006.5
20260903064049 83 184 3.0 5.0 0.00 0.00 0.00 58 1006.4
20260903063050 83 181 2.0 3.0 0.00 0.00 0.00 58 1006.3
20260903062049 83 188 3.0 5.0 0.00 0.00 0.00 58 1006.3
20260903061049 83 192 1.0 2.0 0.00 0.00 0.00 57 1006.3
20260903060050 83 194 1.0 3.0 0.00 0.00 0.00 57 1006.5
20260903055049 84 205 0.0 1.0 0.00 0.00 0.00 56 1006.4
20260903054050 84 233 2.0 3.0 0.00 0.00 0.00 55 1006.3
20260903053049 85 190 3.0 6.0 0.00 0.00 0.00 55 1006.3
20260903052049 85 185 2.0 3.0 0.00 0.00 0.00 54 1006.2
20260903051050 85 174 2.0 3.0 0.00 0.00 0.00 54 1006.3
20260903050049 86 199 2.0 3.0 0.00 0.00 0.00 53 1006.5
20260903045050 86 192 3.0 5.0 0.00 0.00 0.00 53 1006.4
20260903044049 86 177 3.0 3.0 0.00 0.00 0.00 52 1006.3
20260903043050 87 194 3.0 3.0 0.00 0.00 0.00 51 1006.3
20260903042049 87 192 2.0 6.0 0.00 0.00 0.00 51 1006.4
20260903041050 87 183 3.0 5.0 0.00 0.00 0.00 50 1006.3
20260903040049 88 186 6.0 6.0 0.00 0.00 0.00 50 1006.4
20260903035049 88 202 3.0 5.0 0.00 0.00 0.00 49 1006.5
20260903034050 88 192 5.0 5.0 0.00 0.00 0.00 49 1006.5
20260903033049 88 196 5.0 10.0 0.00 0.00 0.00 49 1006.5
20260903032050 88 186 5.0 7.0 0.00 0.00 0.00 49 1006.5
20260903031049 88 191 5.0 5.0 0.00 0.00 0.00 49 1006.5
20260903030050 88 179 3.0 5.0 0.00 0.00 0.00 49 1006.6
20260903025049 88 204 1.0 3.0 0.00 0.00 0.00 49 1006.4
20260903024050 89 201 2.0 3.0 0.00 0.00 0.00 48 1006.2
20260903023049 89 191 2.0 3.0 0.00 0.00 0.00 47 1006.2
20260903022049 89 195 3.0 5.0 0.00 0.00 0.00 47 1006.1
20260903021049 90 191 1.0 2.0 0.00 0.00 0.00 46 1005.8
20260903020048 91 197 1.0 1.0 0.00 0.00 0.00 46 1005.9
20260903015047 91 188 1.0 2.0 0.00 0.00 0.00 45 1005.8
20260903014048 92 206 1.0 3.0 0.00 0.00 0.00 44 1005.7
20260903013047 92 206 2.0 5.0 0.00 0.00 0.00 43 1005.5
20260903012048 93 230 1.0 3.0 0.00 0.00 0.00 43 1005.5
20260903011048 94 186 3.0 3.0 0.00 0.00 0.00 42 1005.3
20260903010049 94 200 3.0 6.0 0.00 0.00 0.00 42 1005.5
20260903005048 95 197 2.0 3.0 0.00 0.00 0.00 41 1005.4
20260903004049 96 179 3.0 6.0 0.00 0.00 0.00 40 1005.3
20260903003048 96 182 6.0 9.0 0.00 0.00 0.00 39 1005.4
20260903002822 97 196 2.0 5.0 0.00 0.00 0.00 40 1005.4
20260903001823 97 193 6.0 9.0 0.00 0.00 0.00 39 1005.4
20260903000822 97 183 6.0 9.0 0.00 0.00 0.00 38 1005.4
20260902235821 98 202 6.0 7.0 0.00 0.00 0.00 38 1005.4
20260902234822 98 186 5.0 6.0 0.00 0.00 0.00 38 1005.5
20260902233821 98 186 6.0 9.0 0.00 0.00 0.00 38 1005.4
20260902232823 98 236 5.0 9.0 0.00 0.00 0.00 38 1005.3
20260902231822 98 190 6.0 12.0 0.00 0.00 0.00 37 1005.5
20260902230823 99 190 10.0 16.0 0.00 0.00 0.00 36 1005.5
20260902225822 99 188 7.0 12.0 0.00 0.00 0.00 37 1005.4
20260902224821 99 201 5.0 6.0 0.00 0.00 0.00 36 1005.5
20260902223822 99 205 3.0 13.0 0.00 0.00 0.00 35 1005.6
20260902222821 100 193 8.0 12.0 0.00 0.00 0.00 34 1005.6
20260902221822 99 222 2.0 6.0 0.00 0.00 0.00 36 1005.6
20260902220821 99 185 6.0 9.0 0.00 0.00 0.00 35 1005.7
20260902215822 99 221 3.0 3.0 0.00 0.00 0.00 35 1005.8
20260902214821 99 187 3.0 6.0 0.00 0.00 0.00 35 1006.0
20260902213823 100 225 5.0 5.0 0.00 0.00 0.00 35 1006.0
20260902212821 100 197 6.0 7.0 0.00 0.00 0.00 34 1006.1
20260902211822 100 177 10.0 13.0 0.00 0.00 0.00 34 1006.2
20260902210823 100 219 5.0 6.0 0.00 0.00 0.00 34 1006.2
20260902205822 100 282 2.0 3.0 0.00 0.00 0.00 34 1006.3
20260902204821 100 280 1.0 2.0 0.00 0.00 0.00 33 1006.5
20260902203822 99 206 5.0 9.0 0.00 0.00 0.00 36 1006.6
20260902202822 99 177 5.0 7.0 0.00 0.00 0.00 35 1006.6
20260902201822 99 275 0.0 1.0 0.00 0.00 0.00 35 1006.7
20260902200822 99 266 1.0 2.0 0.00 0.00 0.00 37 1006.9
20260902195821 100 175 5.0 7.0 0.00 0.00 0.00 37 1006.9
20260902194822 99 179 8.0 12.0 0.00 0.00 0.00 37 1007.0
20260902193821 99 229 7.0 12.0 0.00 0.00 0.00 37 1007.2
20260902192822 99 182 6.0 8.0 0.00 0.00 0.00 39 1007.3
20260902191821 99 210 3.0 14.0 0.00 0.00 0.00 38 1007.5
20260902190822 99 210 2.0 13.0 0.00 0.00 0.00 39 1007.6
20260902185821 99 198 7.0 12.0 0.00 0.00 0.00 39 1007.6
20260902184822 98 178 2.0 12.0 0.00 0.00 0.00 41 1007.8
20260902183822 98 259 1.0 3.0 0.00 0.00 0.00 41 1008.1
20260902182821 98 195 6.0 15.0 0.00 0.00 0.00 41 1008.2
20260902181822 98 184 3.0 9.0 0.00 0.00 0.00 42 1008.4
20260902180821 98 178 6.0 12.0 0.00 0.00 0.00 42 1008.5
20260902175822 97 211 5.0 7.0 0.00 0.00 0.00 42 1008.7
20260902174821 97 282 2.0 7.0 0.00 0.00 0.00 42 1008.7
20260902173823 97 182 5.0 10.0 0.00 0.00 0.00 42 1008.8
20260902172822 96 190 5.0 6.0 0.00 0.00 0.00 43 1008.9
20260902171823 96 234 2.0 6.0 0.00 0.00 0.00 46 1009.0
20260902170822 95 281 1.0 3.0 0.00 0.00 0.00 45 1009.3
20260902165821 95 189 5.0 9.0 0.00 0.00 0.00 46 1009.3